Weather History for Romeoville, IL

Change the Weather History Date:

Thursday, November 8, 2012

  Actual Average Record
Temperature  
Mean Temperature 42 °F 44 °F  
Max Temperature 46 °F 53 °F 75 °F (1999)
Min Temperature 37 °F 36 °F 18 °F (1995)
Degree Days  
Heating Degree Days 23 21  
Month to date heating degree days 207 154  
Since 1 July heating degree days 750 641  
Cooling Degree Days 0 0  
Month to date cooling degree days 0 0  
Year to date cooling degree days 1267 862  
Moisture  
Dew Point 36 °F    
Average Humidity 86    
Maximum Humidity 100    
Minimum Humidity 65    
Precipitation  
Precipitation 0.00 in 0.10 in 1.14 in (2011)
Month to date precipitation 0.19 0.96  
Year to date precipitation 27.74 35.32  
Snow  
Snow 0.00 in 0.00 in 0.20 in (1998)
Month to date snowfall T 0.0  
Since 1 July snowfall T 0.0  
Since 1 September snowfall T 0.0  
Snow Depth 0.00 in    
Sea Level Pressure  
Sea Level Pressure 30.15 in    
Wind  
Wind Speed 5 mph (SW)    
Max Wind Speed 12 mph    
Max Gust Speed 18 mph    
Visibility 6 miles    
Events      
T = Trace of Precipitation, MM = Missing Value Source: NWS Daily Summary

Daily Weather History Graph

Daily Weather History Graph

Search for Another Location

Airport:

Trip Planner

Search our weather history database for the weather conditions in past years. The results will help you decide how hot, cold, wet, or windy it might be!

Date:

Astronomy

Nov. 08, 2012 Rise Set
Actual Time 6:33 AM CST 4:38 PM CST
Civil Twilight 6:04 AM CST 5:07 PM CST
Nautical Twilight 5:30 AM CST 5:40 PM CST
Astronomical Twilight 4:58 AM CST 6:13 PM CST
Moon 12:23 AM CST (11/8) 1:23 PM CST (11/8)
Length of Visible Light 11h 03m
Length of Day
10h 05m
Waning Crescent, 32% of the Moon is Illuminated
Nov 8
Waning Crescent
Nov 13
New
Nov 20
First Quarter
Nov 28
Full
Dec 6
Last Quarter

Hourly Weather History & Observations

Time (CST) Temp. Windchill Dew Point Humidity Pressure Visibility Wind Dir Wind Speed Gust Speed Precip Events Conditions
12:15 AM 41.5 °F - 40.5 °F 96% 30.16 in 2.5 mi Calm Calm - N/A   Overcast
12:35 AM 41.0 °F - 40.3 °F 97% 30.15 in 2.5 mi Calm Calm - N/A   Overcast
12:55 AM 41.0 °F 39.0 °F 40.3 °F 97% 30.16 in 2.5 mi WSW 3.5 mph - N/A   Overcast
1:15 AM 41.0 °F 39.0 °F 40.3 °F 97% 30.16 in 2.5 mi WSW 3.5 mph - N/A   Overcast
1:35 AM 41.0 °F 38.0 °F 41.0 °F 100% 30.16 in 2.5 mi West 4.6 mph - N/A   Overcast
1:55 AM 41.0 °F 39.0 °F 40.1 °F 97% 30.16 in 2.5 mi WSW 3.5 mph - N/A   Overcast
2:15 AM 41.0 °F 38.0 °F 40.1 °F 97% 30.16 in 2.5 mi West 4.6 mph - N/A   Overcast
2:35 AM 40.6 °F 37.5 °F 40.1 °F 98% 30.16 in 2.5 mi WNW 4.6 mph - N/A   Overcast
2:55 AM 40.5 °F 38.4 °F 39.9 °F 98% 30.17 in 2.5 mi West 3.5 mph - N/A   Overcast
3:15 AM 40.5 °F - 39.7 °F 97% 30.17 in 2.5 mi Calm Calm - N/A   Overcast
3:35 AM 40.3 °F - 39.7 °F 98% 30.17 in 2.5 mi Calm Calm - N/A   Overcast
3:55 AM 40.5 °F 36.5 °F 39.6 °F 97% 30.17 in 3.0 mi NW 5.8 mph - N/A   Overcast
4:15 AM 40.6 °F 36.7 °F 39.4 °F 95% 30.17 in 3.0 mi NW 5.8 mph - N/A   Overcast
4:35 AM 40.6 °F 38.6 °F 39.4 °F 95% 30.17 in 3.0 mi WSW 3.5 mph - N/A   Overcast
4:55 AM 41.0 °F 39.0 °F 39.2 °F 93% 30.17 in 3.0 mi WNW 3.5 mph - N/A   Overcast
5:15 AM 40.5 °F 37.3 °F 39.4 °F 96% 30.18 in 3.0 mi NW 4.6 mph - N/A   Overcast
5:35 AM 41.0 °F 39.0 °F 39.2 °F 93% 30.18 in 3.0 mi West 3.5 mph - N/A   Overcast
5:55 AM 40.3 °F - 39.2 °F 96% 30.18 in 3.0 mi Calm Calm - N/A   Overcast
6:15 AM 40.1 °F - 39.2 °F 97% 30.19 in 3.0 mi Calm Calm - N/A   Overcast
6:35 AM 40.1 °F 38.0 °F 39.2 °F 97% 30.19 in 3.0 mi West 3.5 mph - N/A   Overcast
6:55 AM 40.3 °F 38.2 °F 39.2 °F 96% 30.20 in 3.0 mi WSW 3.5 mph - N/A   Overcast
7:15 AM 40.5 °F - 39.2 °F 95% 30.20 in 2.5 mi Calm Calm - N/A   Overcast
7:35 AM 41.0 °F 39.0 °F 39.2 °F 93% 30.21 in 2.5 mi West 3.5 mph - N/A   Overcast
7:55 AM 40.6 °F - 39.2 °F 95% 30.21 in 3.0 mi Calm Calm - N/A   Overcast
8:15 AM 41.0 °F 39.0 °F 38.7 °F 91% 30.21 in 4.0 mi WSW 3.5 mph - N/A   Overcast
8:35 AM 41.2 °F 38.2 °F 37.9 °F 88% 30.21 in 5.0 mi West 4.6 mph - N/A   Overcast
8:55 AM 41.4 °F 37.6 °F 37.8 °F 87% 30.21 in 5.0 mi WSW 5.8 mph - N/A   Overcast
9:15 AM 41.4 °F 38.4 °F 36.9 °F 84% 30.22 in 7.0 mi WSW 4.6 mph - N/A   Overcast
9:35 AM 42.8 °F 39.3 °F 37.4 °F 81% 30.22 in 7.0 mi WSW 5.8 mph - N/A   Overcast
9:55 AM 42.1 °F 38.4 °F 35.6 °F 78% 30.22 in 7.0 mi WSW 5.8 mph - N/A   Overcast
10:15 AM 43.0 °F 37.2 °F 35.2 °F 74% 30.22 in 10.0 mi SW 10.4 mph - N/A   Overcast
10:35 AM 43.0 °F 37.2 °F 33.6 °F 70% 30.22 in 10.0 mi SW 10.4 mph - N/A   Overcast
10:55 AM 43.0 °F 36.8 °F 33.8 °F 70% 30.21 in 10.0 mi WSW 11.5 mph - N/A   Overcast
11:15 AM 43.3 °F 38.6 °F 34.0 °F 70% 30.21 in 10.0 mi WSW 8.1 mph - N/A   Overcast
11:35 AM 43.2 °F 37.4 °F 33.6 °F 69% 30.20 in 10.0 mi WSW 10.4 mph - N/A   Overcast
11:55 AM 43.3 °F 38.1 °F 33.6 °F 69% 30.18 in 10.0 mi SW 9.2 mph - N/A   Overcast
12:15 PM 43.7 °F 39.1 °F 33.6 °F 68% 30.17 in 10.0 mi SW 8.1 mph - N/A   Overcast
12:35 PM 43.9 °F 39.3 °F 33.6 °F 67% 30.17 in 10.0 mi SW 8.1 mph - N/A   Overcast
12:55 PM 44.1 °F 38.1 °F 34.0 °F 68% 30.15 in 10.0 mi SW 11.5 mph - N/A   Overcast
1:15 PM 44.6 °F 38.8 °F 34.2 °F 67% 30.15 in 10.0 mi SSW 11.5 mph - N/A   Overcast
1:35 PM 44.8 °F 39.0 °F 34.2 °F 66% 30.14 in 10.0 mi SSW 11.5 mph 16.1 mph N/A   Overcast
1:55 PM 45.3 °F 39.7 °F 34.2 °F 65% 30.14 in 10.0 mi SW 11.5 mph - N/A   Overcast
2:15 PM 45.1 °F 39.9 °F 34.5 °F 66% 30.14 in 10.0 mi SW 10.4 mph - N/A   Overcast
2:35 PM 45.5 °F 40.8 °F 34.5 °F 65% 30.13 in 10.0 mi SW 9.2 mph - N/A   Overcast
2:55 PM 45.3 °F 40.6 °F 34.9 °F 67% 30.13 in 10.0 mi SSW 9.2 mph 16.1 mph N/A   Overcast
3:15 PM 45.5 °F 39.9 °F 34.7 °F 66% 30.13 in 10.0 mi SW 11.5 mph 18.4 mph N/A   Overcast
3:35 PM 45.5 °F 40.8 °F 35.2 °F 67% 30.12 in 10.0 mi South 9.2 mph - N/A   Overcast
3:55 PM 44.6 °F 41.4 °F 35.2 °F 70% 30.12 in 10.0 mi SSW 5.8 mph - N/A   Mostly Cloudy
4:15 PM 43.2 °F 39.0 °F 35.1 °F 73% 30.11 in 10.0 mi South 6.9 mph - N/A   Clear
4:35 PM 41.2 °F 36.6 °F 34.7 °F 78% 30.11 in 7.0 mi South 6.9 mph - N/A   Clear
4:55 PM 40.8 °F 36.2 °F 34.3 °F 78% 30.11 in 10.0 mi South 6.9 mph - N/A   Clear
5:15 PM 39.6 °F 34.7 °F 34.2 °F 81% 30.12 in 7.0 mi South 6.9 mph - N/A   Clear
5:35 PM 39.9 °F 35.1 °F 34.2 °F 80% 30.12 in 10.0 mi South 6.9 mph - N/A   Clear
5:55 PM 39.2 °F 35.0 °F 34.3 °F 83% 30.12 in 7.0 mi SSE 5.8 mph - N/A   Clear
6:15 PM 37.8 °F 32.5 °F 34.0 °F 86% 30.12 in 7.0 mi SSE 6.9 mph - N/A   Clear
6:35 PM 37.4 °F 31.4 °F 33.8 °F 87% 30.12 in 7.0 mi South 8.1 mph - N/A   Clear
6:55 PM 37.4 °F 31.4 °F 34.2 °F 88% 30.11 in 7.0 mi South 8.1 mph - N/A   Clear
7:15 PM 37.6 °F 32.3 °F 34.7 °F 89% 30.11 in 7.0 mi South 6.9 mph - N/A   Clear
7:35 PM 37.8 °F 31.8 °F 34.9 °F 89% 30.11 in 7.0 mi South 8.1 mph - N/A   Clear
7:55 PM 38.1 °F 32.9 °F 34.9 °F 88% 30.11 in 7.0 mi South 6.9 mph - N/A   Clear
8:15 PM 37.6 °F 31.6 °F 34.9 °F 90% 30.10 in 7.0 mi South 8.1 mph - N/A   Clear
8:35 PM 36.9 °F 30.7 °F 34.3 °F 91% 30.10 in 7.0 mi South 8.1 mph - N/A   Clear
8:55 PM 36.5 °F 31.0 °F 34.3 °F 92% 30.10 in 5.0 mi South 6.9 mph - N/A   Clear
9:15 PM 35.8 °F 30.1 °F 34.0 °F 93% 30.10 in 5.0 mi South 6.9 mph - N/A   Clear
9:35 PM 36.0 °F 30.3 °F 34.2 °F 93% 30.10 in 5.0 mi South 6.9 mph - N/A   Clear
9:55 PM 35.8 °F 30.1 °F 33.8 °F 92% 30.10 in 5.0 mi South 6.9 mph - N/A   Clear
10:15 PM 35.1 °F 29.3 °F 33.8 °F 95% 30.10 in 5.0 mi South 6.9 mph - N/A   Clear
10:35 PM 35.6 °F 29.9 °F 33.8 °F 93% 30.10 in 5.0 mi South 6.9 mph - N/A   Clear
10:55 PM 35.4 °F 29.0 °F 33.8 °F 94% 30.09 in 5.0 mi South 8.1 mph - N/A   Clear
11:15 PM 35.4 °F 29.7 °F 33.8 °F 94% 30.10 in 5.0 mi South 6.9 mph - N/A   Clear
11:35 PM 35.6 °F 29.9 °F 33.8 °F 93% 30.10 in 5.0 mi South 6.9 mph - N/A   Clear
11:55 PM 34.9 °F 29.9 °F 33.4 °F 94% 30.11 in 5.0 mi South 5.8 mph - N/A   Clear